Wrangell, AK

4:49 PM AKST on January 19, 2017 (GMT -0900)
Wrangell

Weather History for PAWG - September, 2013

Change the Weather History Date:

Saturday, September 21, 2013

  Actual Average Record
Temperature  
Mean Temperature 52 °F -  
Max Temperature 53 °F 56 °F 71 °F (2014)
Min Temperature 50 °F 45 °F 37 °F (1955)
Degree Days  
Heating Degree Days 14    
Growing Degree Days 2 (Base 50)    
Moisture  
Dew Point 43 °F    
Average Humidity 72    
Maximum Humidity 82    
Minimum Humidity 62    
Precipitation  
Precipitation 0.05 in - - ()
Sea Level Pressure  
Sea Level Pressure 29.34 in    
Wind  
Wind Speed 8 mph (ESE)    
Max Wind Speed 25 mph    
Max Gust Speed 30 mph    
Visibility 10 miles    
Events      
Averages and records for this station are not official NWS values.
T = Trace of Precipitation, MM = Missing Value Source: NWS Daily Summary

Daily Weather History Graph

Daily Weather History Graph

Search for Another Location

Airport or City:

Trip Planner

Search our weather history database for the weather conditions in past years. The results will help you decide how hot, cold, wet, or windy it might be!

Date:

Astronomy

Sep. 21, 2013 Rise Set
Actual Time 6:33 AM AKDT 6:50 PM AKDT
Civil Twilight 5:55 AM AKDT 7:27 PM AKDT
Nautical Twilight 5:10 AM AKDT 8:12 PM AKDT
Astronomical Twilight 4:22 AM AKDT 9:00 PM AKDT
Moon 7:26 PM AKDT (9/21) 9:35 AM AKDT (9/21)
Length of Visible Light 13h 31m
Length of Day
12h 16m
Waning Gibbous, 93% of the Moon is Illuminated
Sep 21
Waning Gibbous
Sep 26
Last Quarter
Oct 4
New
Oct 11
First Quarter
Oct 18
Full

Hourly Weather History & Observations

Time (AKDT) Temp. Dew Point Humidity Pressure Visibility Wind Dir Wind Speed Gust Speed Precip Events Conditions
12:16 AM 51.8 °F 46.4 °F 82% 29.50 in 10.0 mi NNE 3.5 mph - N/A   Mostly Cloudy
12:36 AM 51.8 °F 46.4 °F 82% 29.50 in 10.0 mi Calm Calm - N/A   Mostly Cloudy
12:56 AM 51.8 °F 46.4 °F 82% 29.50 in 10.0 mi ENE 8.1 mph - N/A   Mostly Cloudy
1:16 AM 51.8 °F 46.4 °F 82% 29.49 in 10.0 mi East 5.8 mph - N/A   Mostly Cloudy
1:36 AM 51.8 °F 46.4 °F 82% 29.49 in 10.0 mi ESE 6.9 mph - N/A   Overcast
1:56 AM 51.8 °F 46.4 °F 82% 29.49 in 10.0 mi West 3.5 mph - N/A   Overcast
2:16 AM 51.8 °F 46.4 °F 82% 29.48 in 10.0 mi Calm Calm - N/A   Overcast
2:36 AM 51.8 °F 46.4 °F 82% 29.48 in 10.0 mi Calm Calm - N/A   Overcast
2:56 AM 51.8 °F 46.4 °F 82% 29.48 in 10.0 mi East 3.5 mph - N/A   Overcast
3:16 AM 51.8 °F 46.4 °F 82% 29.48 in 10.0 mi Calm Calm - N/A   Overcast
3:36 AM 51.8 °F 46.4 °F 82% 29.47 in 10.0 mi Calm Calm - N/A   Mostly Cloudy
3:56 AM 51.8 °F 44.6 °F 76% 29.46 in 10.0 mi East 4.6 mph - N/A   Mostly Cloudy
4:16 AM 51.8 °F 44.6 °F 76% 29.46 in 10.0 mi WNW 4.6 mph - N/A   Mostly Cloudy
4:36 AM 51.8 °F 44.6 °F 76% 29.46 in 10.0 mi ESE 3.5 mph - N/A   Scattered Clouds
4:56 AM 51.8 °F 44.6 °F 76% 29.45 in 10.0 mi Calm Calm - N/A   Partly Cloudy
5:16 AM 51.8 °F 44.6 °F 76% 29.45 in 10.0 mi WNW 5.8 mph - N/A   Mostly Cloudy
5:36 AM 51.8 °F 46.4 °F 82% 29.44 in 10.0 mi ENE 6.9 mph - N/A   Mostly Cloudy
5:56 AM 51.8 °F 46.4 °F 82% 29.44 in 10.0 mi East 5.8 mph - N/A   Overcast
6:16 AM 51.8 °F 46.4 °F 82% 29.43 in 10.0 mi East 9.2 mph - N/A   Overcast
6:36 AM 51.8 °F 46.4 °F 82% 29.44 in 10.0 mi SW 3.5 mph - N/A   Overcast
6:56 AM 51.8 °F 44.6 °F 76% 29.43 in 7.0 mi Calm Calm - N/A   Overcast
7:16 AM 51.8 °F 46.4 °F 82% 29.44 in 7.0 mi Calm Calm - N/A   Overcast
7:36 AM 51.8 °F 44.6 °F 76% 29.43 in 7.0 mi NW 5.8 mph - N/A   Overcast
7:56 AM 51.8 °F 44.6 °F 76% 29.43 in 10.0 mi NW 4.6 mph - N/A   Overcast
8:16 AM 50.0 °F 44.6 °F 82% 29.43 in 10.0 mi NW 3.5 mph - 0.01 in   Overcast
8:36 AM 50.0 °F 44.6 °F 82% 29.43 in 10.0 mi Calm Calm - 0.01 in   Overcast
8:56 AM 51.8 °F 46.4 °F 82% 29.42 in 10.0 mi Calm Calm - 0.01 in   Mostly Cloudy
9:16 AM 51.8 °F 46.4 °F 82% 29.42 in 10.0 mi Calm Calm - N/A   Mostly Cloudy
9:36 AM 51.8 °F 44.6 °F 76% 29.41 in 10.0 mi South 3.5 mph - N/A   Mostly Cloudy
9:56 AM 51.8 °F 44.6 °F 76% 29.41 in 10.0 mi SE 10.4 mph - N/A   Overcast
10:16 AM 51.8 °F 42.8 °F 71% 29.40 in 10.0 mi SE 11.5 mph - N/A   Overcast
10:36 AM 51.8 °F 42.8 °F 71% 29.39 in 10.0 mi ESE 13.8 mph 19.6 mph N/A   Overcast
10:56 AM 51.8 °F 44.6 °F 76% 29.39 in 10.0 mi ESE 15.0 mph 18.4 mph N/A   Overcast
11:16 AM 53.6 °F 42.8 °F 67% 29.38 in 10.0 mi ESE 15.0 mph 19.6 mph N/A   Overcast
11:36 AM 53.6 °F 44.6 °F 72% 29.38 in 10.0 mi ESE 12.7 mph 18.4 mph N/A   Overcast
11:56 AM 53.6 °F 42.8 °F 67% 29.37 in 10.0 mi SE 17.3 mph 21.9 mph N/A   Overcast
12:16 PM 53.6 °F 42.8 °F 67% 29.37 in 10.0 mi SE 13.8 mph 20.7 mph N/A   Overcast
12:36 PM 53.6 °F 42.8 °F 67% 29.36 in 10.0 mi ESE 12.7 mph - N/A   Overcast
12:56 PM 53.6 °F 41.0 °F 62% 29.36 in 10.0 mi SE 17.3 mph - N/A   Mostly Cloudy
1:16 PM 53.6 °F 41.0 °F 62% 29.34 in 10.0 mi SE 16.1 mph 23.0 mph N/A   Mostly Cloudy
1:36 PM 53.6 °F 41.0 °F 62% 29.34 in 10.0 mi ESE 17.3 mph 23.0 mph N/A   Mostly Cloudy
1:56 PM 53.6 °F 42.8 °F 67% 29.34 in 10.0 mi ESE 13.8 mph - N/A   Mostly Cloudy
2:16 PM 53.6 °F 42.8 °F 67% 29.33 in 10.0 mi East 15.0 mph - N/A   Overcast
2:36 PM 53.6 °F 42.8 °F 67% 29.33 in 10.0 mi ESE 16.1 mph 23.0 mph N/A   Overcast
2:56 PM 53.6 °F 42.8 °F 67% 29.32 in 10.0 mi ESE 15.0 mph 20.7 mph N/A   Mostly Cloudy
3:16 PM 53.6 °F 41.0 °F 62% 29.31 in 10.0 mi SE 17.3 mph 23.0 mph N/A   Partly Cloudy
3:36 PM 51.8 °F 42.8 °F 71% 29.31 in 10.0 mi SE 16.1 mph - N/A   Partly Cloudy
3:56 PM 51.8 °F 41.0 °F 67% 29.30 in 10.0 mi SE 13.8 mph 21.9 mph 0.01 in   Partly Cloudy
4:16 PM 51.8 °F 42.8 °F 71% 29.29 in 10.0 mi ESE 11.5 mph 19.6 mph N/A   Mostly Cloudy
4:36 PM 51.8 °F 41.0 °F 67% 29.28 in 10.0 mi SE 12.7 mph - 0.01 in   Scattered Clouds
4:56 PM 51.8 °F 41.0 °F 67% 29.27 in 10.0 mi SE 16.1 mph 20.7 mph 0.02 in   Scattered Clouds
5:16 PM 51.8 °F 41.0 °F 67% 29.25 in 10.0 mi SE 20.7 mph 25.3 mph N/A   Mostly Cloudy
5:36 PM 51.8 °F 41.0 °F 67% 29.25 in 10.0 mi SE 19.6 mph 27.6 mph 0.01 in   Mostly Cloudy
5:56 PM 51.8 °F 39.2 °F 62% 29.24 in 10.0 mi SE 15.0 mph 26.5 mph 0.01 in   Mostly Cloudy
6:16 PM 51.8 °F 39.2 °F 62% 29.23 in 10.0 mi SE 18.4 mph 25.3 mph N/A   Mostly Cloudy
6:36 PM 51.8 °F 39.2 °F 62% 29.22 in 10.0 mi ESE 19.6 mph 24.2 mph N/A   Mostly Cloudy
6:56 PM 51.8 °F 39.2 °F 62% 29.21 in 10.0 mi SE 19.6 mph 27.6 mph N/A   Scattered Clouds
7:16 PM 50.0 °F 39.2 °F 66% 29.19 in 10.0 mi SE 19.6 mph 27.6 mph N/A   Scattered Clouds
7:36 PM 50.0 °F 39.2 °F 66% 29.19 in 10.0 mi SE 25.3 mph 29.9 mph N/A   Scattered Clouds
7:56 PM 51.8 °F 39.2 °F 62% 29.17 in 10.0 mi SE 23.0 mph 29.9 mph N/A   Scattered Clouds
8:16 PM 50.0 °F 39.2 °F 66% 29.19 in 10.0 mi SE 16.1 mph 24.2 mph N/A   Scattered Clouds
8:36 PM 51.8 °F 39.2 °F 62% 29.18 in 10.0 mi SE 15.0 mph 24.2 mph N/A   Scattered Clouds
8:56 PM 51.8 °F 39.2 °F 62% 29.17 in 10.0 mi SE 17.3 mph 23.0 mph N/A   Mostly Cloudy
9:16 PM 51.8 °F 39.2 °F 62% 29.16 in 10.0 mi ESE 17.3 mph 26.5 mph N/A   Mostly Cloudy
9:36 PM 51.8 °F 41.0 °F 67% 29.16 in 10.0 mi ESE 15.0 mph 25.3 mph N/A   Mostly Cloudy
9:56 PM 50.0 °F 41.0 °F 71% 29.15 in 10.0 mi SE 17.3 mph 25.3 mph N/A   Overcast
10:16 PM 50.0 °F 41.0 °F 71% 29.14 in 10.0 mi SE 17.3 mph 25.3 mph N/A   Overcast
10:36 PM 50.0 °F 39.2 °F 66% 29.12 in 10.0 mi SE 20.7 mph 26.5 mph N/A   Overcast
10:56 PM 50.0 °F 39.2 °F 66% 29.11 in 10.0 mi SE 23.0 mph 28.8 mph N/A   Overcast
11:16 PM 50.0 °F 39.2 °F 66% 29.11 in 10.0 mi SE 19.6 mph 27.6 mph N/A   Mostly Cloudy
11:36 PM 51.8 °F 39.2 °F 62% 29.10 in 10.0 mi SE 19.6 mph 24.2 mph N/A   Clear
11:56 PM 51.8 °F 39.2 °F 62% 29.10 in 10.0 mi SE 16.1 mph - N/A   Clear